Tracking 30995 objects as of 5-Jul-2025
HD Live streaming from Space Station
objects crossing your sky now

STARLINK-2191

Track STARLINK-2191 now!
10-day predictions
STARLINK-2191 is classified as:


NORAD ID: 48565
Int'l Code: 2021-041N
Perigee: 306.7 km
Apogee: 309.1 km
Inclination: 53.0 °
Period: 90.5 minutes
Semi major axis: 6678 km
RCS: Unknown
Launch date: May 15, 2021
Source: United States (US)
Launch site: AIR FORCE EASTERN TEST RANGE (AFETR)
Your satellite tracking list
IRIDIUM 106
Track 1 satellite(s)




NASA's NSSDC Master Catalog

Two Line Element Set (TLE):
1 48565U 21041N   25186.58335648  .00298359  44012-4  95658-3 0  9997
2 48565  53.0334  76.1892 0001789 109.4813 153.6227 15.90547500  5942
Source of the keplerian elements: AFSPC